Walnut Ridge, AR

5:39 PM CST on December 14, 2017 (GMT -0600)
Walnut Ridge Regional

Weather History for KARG - February, 2012

Change the Weather History Date:

Tuesday, February 28, 2012

  Actual Average Record
Temperature  
Mean Temperature 54 °F -  
Max Temperature 66 °F 50 °F 75 °F (2017)
Min Temperature 42 °F 34 °F 19 °F (2002)
Degree Days  
Heating Degree Days 11    
Growing Degree Days 4 (Base 50)    
Moisture  
Dew Point 39 °F    
Average Humidity 62    
Maximum Humidity 77    
Minimum Humidity 48    
Precipitation  
Precipitation 0.00 in - - ()
Sea Level Pressure  
Sea Level Pressure 30.20 in    
Wind  
Wind Speed 9 mph (ENE)    
Max Wind Speed 16 mph    
Max Gust Speed -    
Visibility 10 miles    
Events      
Averages and records for this station are not official NWS values.
T = Trace of Precipitation, MM = Missing Value Source: NWS Daily Summary

Daily Weather History Graph

Daily Weather History Graph

Search for Another Location

Airport or City:

Trip Planner

Search our weather history database for the weather conditions in past years. The results will help you decide how hot, cold, wet, or windy it might be!

Date:

Astronomy

Feb. 28, 2012 Rise Set
Actual Time 6:35 AM CST 5:57 PM CST
Civil Twilight 6:10 AM CST 6:22 PM CST
Nautical Twilight 5:40 AM CST 6:52 PM CST
Astronomical Twilight 5:10 AM CST 7:22 PM CST
Moon 9:56 AM CST (2/28) No Moon Set
Length of Visible Light 12h 12m
Length of Day
11h 21m
Waxing Crescent, 38% of the Moon is Illuminated
Feb 28
Waxing Crescent
Feb 29
First Quarter
Mar 8
Full
Mar 14
Last Quarter
Mar 22
New

Hourly Weather History & Observations

Time (CST) Temp. Windchill Dew Point Humidity Pressure Visibility Wind Dir Wind Speed Gust Speed Precip Events Conditions
12:15 AM 44.6 °F 39.2 °F 33.8 °F 66% 30.33 in 10.0 mi NE 10.4 mph - N/A   Clear
12:35 AM 44.6 °F 39.7 °F 33.8 °F 66% 30.33 in 10.0 mi NE 9.2 mph - N/A   Clear
12:55 AM 42.8 °F 37.5 °F 33.8 °F 70% 30.33 in 10.0 mi NE 9.2 mph - N/A   Clear
1:15 AM 42.8 °F 38.0 °F 32.0 °F 66% 30.33 in 10.0 mi NE 8.1 mph - N/A   Clear
1:35 AM 42.8 °F 38.0 °F 33.8 °F 70% 30.33 in 10.0 mi NNE 8.1 mph - N/A   Clear
1:55 AM 42.8 °F 37.5 °F 32.0 °F 66% 30.32 in 10.0 mi NNE 9.2 mph - N/A   Clear
2:15 AM 42.8 °F 37.5 °F 32.0 °F 66% 30.32 in 10.0 mi NNE 9.2 mph - N/A   Clear
2:35 AM 42.8 °F 37.5 °F 32.0 °F 66% 30.32 in 10.0 mi NNE 9.2 mph - N/A   Scattered Clouds
2:55 AM 44.6 °F 39.2 °F 32.0 °F 61% 30.31 in 10.0 mi NNE 10.4 mph - N/A   Overcast
3:15 AM 44.6 °F 39.2 °F 32.0 °F 61% 30.30 in 10.0 mi NE 10.4 mph - N/A   Overcast
3:35 AM 44.6 °F 39.7 °F 32.0 °F 61% 30.29 in 10.0 mi NNE 9.2 mph - N/A   Overcast
3:55 AM 44.6 °F 40.2 °F 32.0 °F 61% 30.29 in 10.0 mi NE 8.1 mph - N/A   Mostly Cloudy
4:15 AM 42.8 °F 38.0 °F 32.0 °F 66% 30.29 in 10.0 mi NE 8.1 mph - N/A   Scattered Clouds
4:35 AM 42.8 °F 37.5 °F 30.2 °F 61% 30.29 in 10.0 mi NNE 9.2 mph - N/A   Scattered Clouds
4:55 AM 42.8 °F 37.0 °F 32.0 °F 66% 30.29 in 10.0 mi NE 10.4 mph - N/A   Mostly Cloudy
5:15 AM 44.6 °F 38.8 °F 32.0 °F 61% 30.29 in 10.0 mi NE 11.5 mph - N/A   Mostly Cloudy
5:35 AM 44.6 °F 39.7 °F 32.0 °F 61% 30.29 in 10.0 mi NE 9.2 mph - N/A   Overcast
5:55 AM 44.6 °F 40.7 °F 32.0 °F 61% 30.29 in 10.0 mi NNE 6.9 mph - N/A   Mostly Cloudy
6:15 AM 44.6 °F 40.2 °F 33.8 °F 66% 30.28 in 10.0 mi NE 8.1 mph - N/A   Overcast
6:35 AM 44.6 °F 40.2 °F 32.0 °F 61% 30.27 in 10.0 mi NE 8.1 mph - N/A   Mostly Cloudy
6:55 AM 44.6 °F 39.2 °F 32.0 °F 61% 30.27 in 10.0 mi NE 10.4 mph - N/A   Overcast
7:15 AM 44.6 °F 38.8 °F 33.8 °F 66% 30.26 in 10.0 mi NE 11.5 mph - N/A   Overcast
7:35 AM 44.6 °F 38.8 °F 32.0 °F 61% 30.27 in 3.0 mi NE 11.5 mph - N/A   Overcast
7:55 AM 44.6 °F 39.2 °F 32.0 °F 61% 30.27 in 10.0 mi ENE 10.4 mph - N/A   Overcast
8:15 AM 46.4 °F 41.5 °F 32.0 °F 57% 30.27 in 10.0 mi ENE 10.4 mph - N/A   Overcast
8:35 AM 46.4 °F 42.9 °F 32.0 °F 57% 30.26 in 10.0 mi NE 6.9 mph - N/A   Overcast
8:55 AM 46.4 °F 41.9 °F 33.8 °F 62% 30.25 in 10.0 mi NE 9.2 mph - N/A   Overcast
9:15 AM 46.4 °F 42.9 °F 33.8 °F 62% 30.25 in 10.0 mi NE 6.9 mph - N/A   Overcast
9:35 AM 48.2 °F - 33.8 °F 58% 30.25 in 10.0 mi NE 8.1 mph - N/A   Overcast
9:55 AM 48.2 °F - 33.8 °F 58% 30.24 in 10.0 mi NE 8.1 mph - N/A   Overcast
10:15 AM 50.0 °F - 35.6 °F 58% 30.23 in 10.0 mi NE 8.1 mph - N/A   Overcast
10:35 AM 51.8 °F - 35.6 °F 54% 30.22 in 10.0 mi NE 8.1 mph - N/A   Mostly Cloudy
10:55 AM 53.6 °F - 37.4 °F 54% 30.22 in 10.0 mi NNE 6.9 mph - N/A   Mostly Cloudy
11:15 AM 55.4 °F - 37.4 °F 51% 30.21 in 10.0 mi ENE 6.9 mph - N/A   Mostly Cloudy
11:35 AM 57.2 °F - 39.2 °F 51% 30.18 in 10.0 mi East 10.4 mph - N/A   Partly Cloudy
11:55 AM 59.0 °F - 39.2 °F 48% 30.19 in 10.0 mi East 4.6 mph - N/A   Mostly Cloudy
12:15 PM 59.0 °F - 41.0 °F 51% 30.18 in 10.0 mi East 5.8 mph - N/A   Overcast
12:35 PM 60.8 °F - 41.0 °F 48% 30.17 in 10.0 mi ESE 3.5 mph - N/A   Overcast
12:55 PM 60.8 °F - 42.8 °F 52% 30.14 in 10.0 mi East 3.5 mph - N/A   Overcast
1:15 PM 62.6 °F - 44.6 °F 52% 30.13 in 10.0 mi South 3.5 mph - N/A   Overcast
1:35 PM 62.6 °F - 44.6 °F 52% 30.12 in 10.0 mi SSE 3.5 mph - N/A   Overcast
1:55 PM 64.4 °F - 46.4 °F 52% 30.11 in 10.0 mi Calm Calm - N/A   Overcast
2:15 PM 64.4 °F - 46.4 °F 52% 30.09 in 10.0 mi ESE 3.5 mph - N/A   Overcast
2:35 PM 64.4 °F - 48.2 °F 56% 30.08 in 10.0 mi Calm Calm - N/A   Overcast
2:55 PM 66.2 °F - 50.0 °F 56% 30.07 in 10.0 mi South 6.9 mph - N/A   Overcast
3:15 PM 66.2 °F - 53.6 °F 64% 30.05 in 10.0 mi South 10.4 mph - N/A   Overcast
3:35 PM 66.2 °F - 53.6 °F 64% 30.04 in 10.0 mi South 8.1 mph - N/A   Overcast
3:55 PM 66.2 °F - 55.4 °F 68% 30.03 in 10.0 mi South 11.5 mph - N/A   Overcast
4:15 PM 64.4 °F - 55.4 °F 73% 30.03 in 10.0 mi South 9.2 mph - N/A   Overcast
4:35 PM 64.4 °F - 55.4 °F 73% 30.02 in 10.0 mi South 10.4 mph - N/A   Overcast
4:55 PM 64.4 °F - 55.4 °F 73% 30.01 in 10.0 mi South 10.4 mph - N/A   Overcast
5:15 PM 64.4 °F - 55.4 °F 73% 30.00 in 10.0 mi South 11.5 mph - N/A   Overcast
5:35 PM 64.4 °F - 57.2 °F 77% 29.99 in 10.0 mi South 10.4 mph - N/A   Overcast
5:55 PM 64.4 °F - 57.2 °F 77% 29.99 in 10.0 mi South 16.1 mph - N/A   Overcast
6:15 PM 64.4 °F - 57.2 °F 77% 29.97 in 10.0 mi South 15.0 mph - N/A   Overcast
6:35 PM 64.4 °F - 57.2 °F 77% 29.96 in 10.0 mi South 17.3 mph - N/A   Overcast
6:55 PM 64.4 °F - 59.0 °F 83% 29.95 in 10.0 mi South 18.4 mph - N/A   Overcast
7:15 PM 64.4 °F - 59.0 °F 83% 29.94 in 10.0 mi South 16.1 mph 21.9 mph N/A   Overcast
7:35 PM 62.6 °F - 59.0 °F 88% 29.94 in 10.0 mi South 17.3 mph 23.0 mph N/A   Overcast
7:55 PM 62.6 °F - 59.0 °F 88% 29.95 in 10.0 mi South 19.6 mph 25.3 mph N/A   Overcast
8:15 PM 62.6 °F - 59.0 °F 88% 29.95 in 10.0 mi South 17.3 mph - N/A   Overcast
8:35 PM 62.6 °F - 59.0 °F 88% 29.93 in 10.0 mi South 19.6 mph - N/A   Overcast
8:55 PM 62.6 °F - 60.8 °F 94% 29.92 in 10.0 mi South 18.4 mph 28.8 mph N/A   Overcast
9:15 PM 62.6 °F - 60.8 °F 94% 29.91 in 10.0 mi South 20.7 mph 25.3 mph N/A   Overcast
9:35 PM 62.6 °F - 60.8 °F 94% 29.90 in 10.0 mi South 21.9 mph 28.8 mph N/A   Overcast
9:55 PM 62.6 °F - 60.8 °F 94% 29.88 in 10.0 mi South 24.2 mph 29.9 mph N/A   Overcast
10:15 PM 62.6 °F - 60.8 °F 94% 29.88 in 10.0 mi South 21.9 mph 27.6 mph N/A   Overcast
10:35 PM 64.4 °F - 62.6 °F 94% 29.87 in 10.0 mi South 23.0 mph 28.8 mph N/A   Overcast
10:55 PM 64.4 °F - 62.6 °F 94% 29.86 in 10.0 mi South 31.1 mph 36.8 mph N/A   Overcast
11:15 PM 64.4 °F - 62.6 °F 94% 29.85 in 9.0 mi South 23.0 mph 35.7 mph N/A   Overcast
11:35 PM 64.4 °F - 62.6 °F 94% 29.84 in 10.0 mi South 28.8 mph 33.4 mph N/A   Overcast
11:55 PM 66.2 °F - 62.6 °F 88% 29.84 in 10.0 mi South 27.6 mph 32.2 mph N/A   Overcast